This demonstration page uses our WeatherBlox Daily Observations layout. Learn more.

Left ArrowRight Arrow

34.02893, -84.19858

Hourly Observations for July 3, 2022

Temp ( °F °C ) Dew Point ( °F °C ) Humidity (%) Winds ( mph kmh ) Pressure ( in mb ) Visibility ( mi km ) Precip ( " mm )
12:20 am 00:20 Mostly Clear with Nearby Thunderstorms 77 25 70 21.1 79 79 Calm 30.03 1017 10 16 0.00 0.00
12:45 am 00:45 Clear 76 24.4 70 21.1 82 82 Calm 30.02 1017 10 16 0.00 0.00
12:53 am 00:53 Clear 76 24.4 70 21.1 82 82 Calm 29.99 1016 10 16 0.00 0.00
1:53 am 01:53 Clear 74 23.3 70 21.1 88 88 SW 3 6 29.98 1015 10 16 0.00 0.00
2:53 am 02:53 Clear 74 23.3 70 21.1 88 88 Calm 29.98 1015 10 16 0.00 0.00
3:53 am 03:53 Clear 74 23.3 70 21.1 88 88 Calm 29.97 1015 10 16 0.00 0.00
4:53 am 04:53 Clear 74 23.3 71 21.7 91 91 W 5 7 29.98 1015 10 16 0.00 0.00
5:53 am 05:53 Clear 74 23.3 71 21.7 91 91 WNW 5 7 30.00 1016 10 16 0.00 0.00
6:53 am 06:53 Sunny 73 22.8 71 21.7 94 94 WSW 5 7 30.03 1017 10 16 0.00 0.00
7:53 am 07:53 Sunny 76 24.4 72 22.2 88 88 W 5 7 30.05 1018 10 16 0.00 0.00
8:53 am 08:53 Sunny 80 26.7 72 22.2 76 76 WNW 7 11 30.05 1018 10 16 0.00 0.00
9:53 am 09:53 Sunny 84 28.9 72 22.2 67 67 W 8 13 30.06 1018 10 16 0.00 0.00
10:53 am 10:53 Mostly Sunny 87 30.6 73 22.8 63 63 NW 8 13 30.06 1018 10 16 0.00 0.00
11:53 am 11:53 Sunny 90 32.2 72 22.2 56 56 NNW 9 15 30.05 1018 10 16 0.00 0.00
12:53 pm 12:53 Mostly Sunny 91 32.8 70 21.1 50 50 Calm 30.02 1017 10 16 0.00 0.00
1:53 pm 13:53 Mostly Cloudy 89 31.7 68 20 50 50 NW 7 11 30.01 1016 10 16 0.00 0.00
2:53 pm 14:53 Partly Cloudy 93 33.9 68 20 44 44 VRB 6 9 29.98 1015 10 16 0.00 0.00
3:53 pm 15:53 Sunny 95 35 68 20 41 41 W 7 11 29.96 1015 10 16 0.00 0.00
4:24 pm 16:24 Sunny with Nearby Thunderstorms 93 33.9 68 20 44 44 WNW 7 11 29.97 1015 10 16 0.00 0.00
4:42 pm 16:42 Partly Cloudy with Thunderstorms 86 30 70 21.1 59 59 NW 15 24 29.99 1016 10 16 0.00 0.00
4:53 pm 16:53 Partly Cloudy with Thunderstorms 85 29.4 70 21.1 61 61 NW 12 19 30.00 1016 10 16 0.00 0.00
5:10 pm 17:10 Partly Cloudy with Nearby Thunderstorms 84 28.9 70 21.1 63 63 NW 12 19 30.00 1016 10 16 0.00 0.00
5:36 pm 17:36 Partly Cloudy 84 28.9 69 20.6 61 61 NNW 10 17 30.00 1016 10 16 0.00 0.00
5:53 pm 17:53 Partly Cloudy 84 28.9 69 20.6 61 61 N 5 7 30.02 1017 10 16 0.00 0.00
6:53 pm 18:53 Partly Cloudy 85 29.4 71 21.7 63 63 VRB 6 9 30.01 1016 10 16 0.00 0.00
7:53 pm 19:53 Sunny 86 30 70 21.1 59 59 NW 6 9 30.02 1017 10 16 0.00 0.00
8:53 pm 20:53 Cloudy 80 26.7 73 22.8 79 79 VRB 6 9 30.06 1018 10 16 0.00 0.00
9:53 pm 21:53 Mostly Cloudy 76 24.4 72 22.2 88 88 S 3 6 30.06 1018 10 16 0.00 0.00
10:53 pm 22:53 Mostly Clear 75 23.9 73 22.8 94 94 SSW 3 6 30.06 1018 10 16 0.00 0.00
11:53 pm 23:53 Clear 75 23.9 73 22.8 94 94 Calm 30.04 1017 9 14 0.00 0.00

Powered by AerisWeather